Time,TemperatureF,DewpointF,PressureIn,WindDirection,WindDirectionDegrees,WindSpeedMPH,WindSpeedGustMPH,Humidity,HourlyPrecipIn,Conditions,Clouds,dailyrainin,SoftwareType,DateUTC
2014-01-23 00:00:00,2.4,-7.3,29.94,NNW,330,0.0,0.0,63,0.00,CLR,,0.00,WeatherDisplay:10.37,2014-01-23 05:00:00,
2014-01-23 00:01:00,2.4,-7.3,29.94,NNW,330,0.0,0.0,63,0.00,CLR,,0.00,WeatherDisplay:10.37,2014-01-23 05:01:00,
2014-01-23 00:06:00,2.0,-7.4,29.94,NNW,330,0.0,0.0,64,0.00,CLR,,0.00,WeatherDisplay:10.37,2014-01-23 05:06:00,
2014-01-23 00:11:00,1.8,-7.3,29.94,North,11,1.0,4.6,65,0.00,CLR,,0.00,WeatherDisplay:10.37,2014-01-23 05:11:00,
2014-01-23 00:16:00,1.8,-7.3,29.94,NE,42,0.1,3.5,65,0.00,CLR,,0.00,WeatherDisplay:10.37,2014-01-23 05:16:00,
2014-01-23 00:21:00,2.0,-7.1,29.94,ENE,59,2.6,3.5,65,0.00,CLR,,0.00,WeatherDisplay:10.37,2014-01-23 05:21:00,
2014-01-23 00:26:00,2.2,-7.2,29.94,NE,45,2.9,4.6,64,0.00,CLR,,0.00,WeatherDisplay:10.37,2014-01-23 05:26:00,
2014-01-23 00:31:00,2.4,-7.3,29.94,NE,38,1.8,3.5,63,0.00,CLR,,0.00,WeatherDisplay:10.37,2014-01-23 05:31:00,
2014-01-23 00:36:00,2.6,-7.5,29.94,NE,38,2.5,4.6,62,0.00,CLR,,0.00,WeatherDisplay:10.37,2014-01-23 05:36:00,
2014-01-23 00:41:00,2.8,-7.3,29.94,NE,38,0.9,2.3,62,0.00,CLR,,0.00,WeatherDisplay:10.37,2014-01-23 05:41:00,
2014-01-23 00:46:00,2.8,-7.3,29.94,NE,36,3.9,5.8,62,0.00,CLR,,0.00,WeatherDisplay:10.37,2014-01-23 05:46:00,
2014-01-23 00:51:00,2.8,-7.6,29.94,NE,36,2.7,5.0,61,0.00,CLR,,0.00,WeatherDisplay:10.37,2014-01-23 05:51:00,
2014-01-23 00:56:00,2.8,-7.3,29.94,NE,36,1.3,3.5,62,0.00,CLR,,0.00,WeatherDisplay:10.37,2014-01-23 05:56:00,
2014-01-23 01:01:00,3.0,-7.1,29.94,NE,36,2.2,3.5,62,0.00,CLR,,0.00,WeatherDisplay:10.37,2014-01-23 06:01:00,
2014-01-23 01:06:00,3.0,-7.1,29.94,NE,36,0.7,2.3,62,0.00,CLR,,0.00,WeatherDisplay:10.37,2014-01-23 06:06:00,
2014-01-23 01:11:00,3.0,-7.1,29.95,NE,36,0.0,0.0,62,0.00,CLR,,0.00,WeatherDisplay:10.37,2014-01-23 06:11:00,
2014-01-23 01:16:00,2.8,-7.3,29.95,NE,36,0.0,1.1,62,0.00,CLR,,0.00,WeatherDisplay:10.37,2014-01-23 06:16:00,
2014-01-23 01:21:00,3.0,-6.8,29.95,NE,36,0.6,2.3,63,0.00,CLR,,0.00,WeatherDisplay:10.37,2014-01-23 06:21:00,
2014-01-23 01:26:00,3.0,-6.8,29.95,NE,36,0.7,1.1,63,0.00,CLR,,0.00,WeatherDisplay:10.37,2014-01-23 06:26:00,
2014-01-23 01:31:00,3.0,-7.1,29.95,NE,36,0.5,2.3,62,0.00,CLR,,0.00,WeatherDisplay:10.37,2014-01-23 06:31:00,
2014-01-23 01:36:00,2.8,-7.0,29.95,NE,36,0.5,1.1,63,0.00,CLR,,0.00,WeatherDisplay:10.37,2014-01-23 06:36:00,
2014-01-23 01:41:00,2.6,-7.1,29.95,NE,36,2.2,3.5,63,0.00,CLR,,0.00,WeatherDisplay:10.37,2014-01-23 06:41:00,
2014-01-23 01:46:00,2.6,-6.8,29.95,NNE,30,0.8,2.0,64,0.00,CLR,,0.00,WeatherDisplay:10.37,2014-01-23 06:46:00,
2014-01-23 01:51:00,2.6,-7.1,29.95,NNE,30,0.1,1.1,63,0.00,CLR,,0.00,WeatherDisplay:10.37,2014-01-23 06:51:00,
2014-01-23 01:56:00,2.6,-7.1,29.95,NNE,29,0.0,1.1,63,0.00,CLR,,0.00,WeatherDisplay:10.37,2014-01-23 06:56:00,
2014-01-23 02:01:00,2.6,-7.1,29.96,NNE,29,0.0,0.0,63,0.00,CLR,,0.00,WeatherDisplay:10.37,2014-01-23 07:01:00,
2014-01-23 02:06:00,2.6,-6.8,29.97,NNE,29,0.0,0.0,64,0.00,CLR,,0.00,WeatherDisplay:10.37,2014-01-23 07:06:00,
2014-01-23 02:11:00,2.4,-7.0,29.96,NNE,32,1.0,3.5,64,0.00,CLR,,0.00,WeatherDisplay:10.37,2014-01-23 07:11:00,
2014-01-23 02:16:00,2.6,-7.1,29.96,NNE,19,3.2,3.5,63,0.00,CLR,,0.00,WeatherDisplay:10.37,2014-01-23 07:16:00,
2014-01-23 02:21:00,2.6,-7.5,29.97,East,83,1.9,4.6,62,0.00,CLR,,0.00,WeatherDisplay:10.37,2014-01-23 07:21:00,
2014-01-23 02:26:00,2.6,-7.5,29.97,NE,37,1.3,3.5,62,0.00,CLR,,0.00,WeatherDisplay:10.37,2014-01-23 07:26:00,
2014-01-23 02:31:00,2.6,-7.5,29.97,NE,44,1.4,1.4,62,0.00,CLR,,0.00,WeatherDisplay:10.37,2014-01-23 07:31:00,
2014-01-23 02:37:00,2.6,-7.5,29.97,NNE,16,0.9,2.3,62,0.00,CLR,,0.00,WeatherDisplay:10.37,2014-01-23 07:37:00,
2014-01-23 02:42:00,2.6,-7.1,29.97,NE,40,0.2,2.3,63,0.00,CLR,,0.00,WeatherDisplay:10.37,2014-01-23 07:42:00,
2014-01-23 02:47:00,2.6,-7.5,29.97,NW,320,0.5,3.5,62,0.00,CLR,,0.00,WeatherDisplay:10.37,2014-01-23 07:47:00,
2014-01-23 02:52:00,2.6,-7.5,29.97,NW,320,0.2,1.0,62,0.00,CLR,,0.00,WeatherDisplay:10.37,2014-01-23 07:52:00,
2014-01-23 02:57:00,2.6,-7.5,29.98,NW,318,1.6,3.5,62,0.00,CLR,,0.00,WeatherDisplay:10.37,2014-01-23 07:57:00,
2014-01-23 03:02:00,2.4,-7.7,29.97,NNE,31,1.8,3.5,62,0.00,CLR,,0.00,WeatherDisplay:10.37,2014-01-23 08:02:00,
2014-01-23 03:07:00,2.4,-7.7,29.97,NNE,31,1.8,3.5,62,0.00,CLR,,0.00,WeatherDisplay:10.37,2014-01-23 08:07:00,
2014-01-23 03:12:00,2.2,-7.9,29.98,NNE,31,1.1,2.3,62,0.00,CLR,,0.00,WeatherDisplay:10.37,2014-01-23 08:12:00,
2014-01-23 03:17:00,2.2,-7.5,29.98,NNE,31,0.0,0.0,63,0.00,CLR,,0.00,WeatherDisplay:10.37,2014-01-23 08:17:00,
2014-01-23 03:22:00,2.0,-7.7,29.98,NNE,31,0.0,0.0,63,0.00,CLR,,0.00,WeatherDisplay:10.37,2014-01-23 08:22:00,
2014-01-23 03:27:00,1.8,-7.9,29.98,NNE,31,0.0,0.0,63,0.00,CLR,,0.00,WeatherDisplay:10.37,2014-01-23 08:27:00,
2014-01-23 03:32:00,1.7,-8.0,29.98,NNE,31,0.0,0.0,63,0.00,CLR,,0.00,WeatherDisplay:10.37,2014-01-23 08:32:00,
2014-01-23 03:37:00,1.5,-7.9,29.98,NNE,31,0.0,0.0,64,0.00,CLR,,0.00,WeatherDisplay:10.37,2014-01-23 08:37:00,
2014-01-23 03:42:00,1.3,-7.7,29.98,NNE,31,0.0,0.0,65,0.00,CLR,,0.00,WeatherDisplay:10.37,2014-01-23 08:42:00,
2014-01-23 03:47:00,1.1,-7.9,29.98,NNE,31,0.0,0.0,65,0.00,CLR,,0.00,WeatherDisplay:10.37,2014-01-23 08:47:00,
2014-01-23 03:52:00,1.1,-7.9,29.98,NNE,31,0.0,0.0,65,0.00,CLR,,0.00,WeatherDisplay:10.37,2014-01-23 08:52:00,
2014-01-23 03:57:00,0.9,-7.5,29.98,NNE,31,0.0,0.0,67,0.00,CLR,,0.00,WeatherDisplay:10.37,2014-01-23 08:57:00,
2014-01-23 04:02:00,0.7,-7.7,29.99,NNE,31,0.0,0.0,67,0.00,CLR,,0.00,WeatherDisplay:10.37,2014-01-23 09:02:00,
2014-01-23 04:07:00,0.7,-7.7,29.98,NNE,31,0.0,0.0,67,0.00,CLR,,0.00,WeatherDisplay:10.37,2014-01-23 09:07:00,
2014-01-23 04:12:00,0.7,-7.7,29.98,NNE,31,0.8,3.5,67,0.00,CLR,,0.00,WeatherDisplay:10.37,2014-01-23 09:12:00,
2014-01-23 04:17:00,0.9,-7.5,29.99,NNE,31,0.0,0.0,67,0.00,CLR,,0.00,WeatherDisplay:10.37,2014-01-23 09:17:00,
2014-01-23 04:22:00,0.9,-7.2,29.99,NNE,31,0.3,2.0,68,0.00,CLR,,0.00,WeatherDisplay:10.37,2014-01-23 09:22:00,
2014-01-23 04:27:00,1.1,-7.6,29.99,NNE,31,0.2,0.0,66,0.00,CLR,,0.00,WeatherDisplay:10.37,2014-01-23 09:27:00,
2014-01-23 04:32:00,1.3,-7.4,29.99,NNE,31,0.0,1.1,66,0.00,CLR,,0.00,WeatherDisplay:10.37,2014-01-23 09:32:00,
2014-01-23 04:37:00,1.3,-7.4,30.00,NNE,31,0.0,0.0,66,0.00,CLR,,0.00,WeatherDisplay:10.37,2014-01-23 09:37:00,
2014-01-23 04:42:00,1.5,-7.6,30.00,NNE,31,0.0,0.0,65,0.00,CLR,,0.00,WeatherDisplay:10.37,2014-01-23 09:42:00,
2014-01-23 04:47:00,1.5,-7.6,30.00,NNE,31,0.0,0.0,65,0.00,CLR,,0.00,WeatherDisplay:10.37,2014-01-23 09:47:00,
2014-01-23 04:52:00,1.3,-7.4,30.00,NNE,31,0.0,0.0,66,0.00,CLR,,0.00,WeatherDisplay:10.37,2014-01-23 09:52:00,
2014-01-23 04:57:00,1.3,-7.1,30.00,NNE,31,0.0,0.0,67,0.00,CLR,,0.00,WeatherDisplay:10.37,2014-01-23 09:57:00,
2014-01-23 05:02:00,1.1,-7.3,30.00,NNE,31,0.0,0.0,67,0.00,CLR,,0.00,WeatherDisplay:10.37,2014-01-23 10:02:00,
2014-01-23 05:07:00,0.9,-7.5,30.01,NNE,31,0.0,0.0,67,0.00,CLR,,0.00,WeatherDisplay:10.37,2014-01-23 10:07:00,
2014-01-23 05:12:00,0.9,-7.2,30.01,NNE,31,0.0,0.0,68,0.00,CLR,,0.00,WeatherDisplay:10.37,2014-01-23 10:12:00,
2014-01-23 05:17:00,0.9,-6.9,30.01,NNE,31,0.0,0.0,69,0.00,CLR,,0.00,WeatherDisplay:10.37,2014-01-23 10:17:00,
2014-01-23 05:22:00,0.9,-7.2,30.01,NNE,31,0.0,0.0,68,0.00,CLR,,0.00,WeatherDisplay:10.37,2014-01-23 10:22:00,
2014-01-23 05:27:00,0.9,-6.9,30.01,NNE,31,0.0,1.1,69,0.00,CLR,,0.00,WeatherDisplay:10.37,2014-01-23 10:27:00,
2014-01-23 05:32:00,1.1,-6.4,30.01,NNE,31,0.0,0.0,70,0.00,CLR,,0.00,WeatherDisplay:10.37,2014-01-23 10:32:00,
2014-01-23 05:37:00,1.1,-6.7,30.01,NNE,31,0.0,0.0,69,0.00,CLR,,0.00,WeatherDisplay:10.37,2014-01-23 10:37:00,
2014-01-23 05:42:00,1.1,-6.7,30.02,NNE,31,0.0,0.0,69,0.00,CLR,,0.00,WeatherDisplay:10.37,2014-01-23 10:42:00,
2014-01-23 05:47:00,0.9,-6.9,30.01,NNE,31,0.0,0.0,69,0.00,CLR,,0.00,WeatherDisplay:10.37,2014-01-23 10:47:00,
2014-01-23 05:52:00,0.9,-6.9,30.02,NNE,31,0.0,0.0,69,0.00,CLR,,0.00,WeatherDisplay:10.37,2014-01-23 10:52:00,
2014-01-23 05:57:00,1.1,-6.4,30.02,NNE,31,0.0,0.0,70,0.00,CLR,,0.00,WeatherDisplay:10.37,2014-01-23 10:57:00,
2014-01-23 06:02:00,1.3,-6.5,30.02,NNE,31,0.0,0.0,69,0.00,CLR,,0.00,WeatherDisplay:10.37,2014-01-23 11:02:00,
2014-01-23 06:07:00,1.3,-6.5,30.02,NNE,31,0.0,0.0,69,0.00,CLR,,0.00,WeatherDisplay:10.37,2014-01-23 11:07:00,
2014-01-23 06:12:00,1.3,-6.2,30.03,NNE,31,0.0,0.0,70,0.00,CLR,,0.00,WeatherDisplay:10.37,2014-01-23 11:12:00,
2014-01-23 06:17:00,1.3,-6.5,30.03,NNE,31,0.0,0.0,69,0.00,CLR,,0.00,WeatherDisplay:10.37,2014-01-23 11:17:00,
2014-01-23 06:22:00,1.5,-6.3,30.03,NNE,31,0.0,0.0,69,0.00,CLR,,0.00,WeatherDisplay:10.37,2014-01-23 11:22:00,
2014-01-23 06:27:00,1.7,-6.4,30.03,NNE,31,0.0,0.0,68,0.00,CLR,,0.00,WeatherDisplay:10.37,2014-01-23 11:27:00,
2014-01-23 06:32:00,1.7,-6.4,30.03,NNE,31,0.0,0.0,68,0.00,CLR,,0.00,WeatherDisplay:10.37,2014-01-23 11:32:00,
2014-01-23 06:37:00,1.7,-6.1,30.03,NNE,31,0.9,2.3,69,0.00,CLR,,0.00,WeatherDisplay:10.37,2014-01-23 11:37:00,
2014-01-23 06:42:00,1.8,-6.6,30.03,NNE,31,0.2,1.1,67,0.00,CLR,,0.00,WeatherDisplay:10.37,2014-01-23 11:42:00,
2014-01-23 06:47:00,2.0,-6.5,30.03,NW,307,1.7,3.5,67,0.00,CLR,,0.00,WeatherDisplay:10.37,2014-01-23 11:47:00,
2014-01-23 06:52:00,2.2,-6.3,30.03,NW,307,0.0,0.0,67,0.00,CLR,,0.00,WeatherDisplay:10.37,2014-01-23 11:52:00,
2014-01-23 06:57:00,2.2,-6.3,30.03,NW,307,0.6,2.3,67,0.00,CLR,,0.00,WeatherDisplay:10.37,2014-01-23 11:57:00,
2014-01-23 07:02:00,2.2,-6.3,30.04,NW,307,0.0,0.0,67,0.00,CLR,,0.00,WeatherDisplay:10.37,2014-01-23 12:02:00,
2014-01-23 07:07:00,2.2,-6.6,30.04,NW,307,0.0,0.0,66,0.00,CLR,,0.00,WeatherDisplay:10.37,2014-01-23 12:07:00,
2014-01-23 07:12:00,2.0,-6.8,30.04,NW,307,0.0,0.0,66,0.00,CLR,,0.00,WeatherDisplay:10.37,2014-01-23 12:12:00,
2014-01-23 07:17:00,1.8,-7.0,30.04,NW,307,0.0,0.0,66,0.00,CLR,,0.00,WeatherDisplay:10.37,2014-01-23 12:17:00,
2014-01-23 07:22:00,1.5,-7.2,30.05,NW,307,0.0,0.0,66,0.00,CLR,,0.00,WeatherDisplay:10.37,2014-01-23 12:22:00,
2014-01-23 07:27:00,1.3,-7.1,30.05,NW,307,0.0,0.0,67,0.00,CLR,,0.00,WeatherDisplay:10.37,2014-01-23 12:27:00,
2014-01-23 07:32:00,1.1,-7.0,30.05,NW,307,0.0,0.0,68,0.00,CLR,,0.00,WeatherDisplay:10.37,2014-01-23 12:32:00,
2014-01-23 07:37:00,0.9,-6.9,30.05,NW,307,0.0,0.0,69,0.00,CLR,,0.00,WeatherDisplay:10.37,2014-01-23 12:37:00,
2014-01-23 07:42:00,0.9,-6.3,30.05,NW,307,0.0,0.0,71,0.00,CLR,,0.00,WeatherDisplay:10.37,2014-01-23 12:42:00,
2014-01-23 07:47:00,0.9,-6.3,30.05,NW,307,0.0,0.0,71,0.00,CLR,,0.00,WeatherDisplay:10.37,2014-01-23 12:47:00,
2014-01-23 07:52:00,0.9,-6.3,30.05,NW,307,0.3,2.0,71,0.00,CLR,,0.00,WeatherDisplay:10.37,2014-01-23 12:52:00,
2014-01-23 07:57:00,1.3,-5.9,30.05,NW,307,0.2,1.1,71,0.00,CLR,,0.00,WeatherDisplay:10.37,2014-01-23 12:57:00,
2014-01-23 08:02:00,1.5,-6.0,30.05,NW,307,0.0,0.0,70,0.00,CLR,,0.00,WeatherDisplay:10.37,2014-01-23 13:02:00,
2014-01-23 08:07:00,1.8,-5.4,30.05,NW,307,0.0,0.0,71,0.00,CLR,,0.00,WeatherDisplay:10.37,2014-01-23 13:07:00,
2014-01-23 08:12:00,2.0,-5.2,30.05,NW,307,0.0,0.0,71,0.00,CLR,,0.00,WeatherDisplay:10.37,2014-01-23 13:12:00,
2014-01-23 08:17:00,2.2,-5.4,30.05,NW,307,0.1,1.1,70,0.00,CLR,,0.00,WeatherDisplay:10.37,2014-01-23 13:17:00,
2014-01-23 08:22:00,2.4,-5.5,30.05,NW,307,0.0,0.0,69,0.00,CLR,,0.00,WeatherDisplay:10.37,2014-01-23 13:22:00,
2014-01-23 08:27:00,2.6,-5.6,30.05,NW,307,1.3,2.3,68,0.00,CLR,,0.00,WeatherDisplay:10.37,2014-01-23 13:27:00,
2014-01-23 08:32:00,3.0,-5.5,30.05,NW,307,0.2,1.1,67,0.00,CLR,,0.00,WeatherDisplay:10.37,2014-01-23 13:32:00,
2014-01-23 08:37:00,3.2,-5.6,30.05,NW,307,0.1,1.1,66,0.00,CLR,,0.00,WeatherDisplay:10.37,2014-01-23 13:37:00,
2014-01-23 08:42:00,3.4,-5.1,30.05,NW,307,0.0,0.0,67,0.00,CLR,,0.00,WeatherDisplay:10.37,2014-01-23 13:42:00,
2014-01-23 08:47:00,3.5,-5.3,30.05,NW,307,0.0,0.0,66,0.00,CLR,,0.00,WeatherDisplay:10.37,2014-01-23 13:47:00,
2014-01-23 08:52:00,3.5,-6.0,30.05,NW,307,0.0,0.0,64,0.00,CLR,,0.00,WeatherDisplay:10.37,2014-01-23 13:52:00,
2014-01-23 08:57:00,3.7,-5.8,30.06,NW,307,0.0,0.0,64,0.00,CLR,,0.00,WeatherDisplay:10.37,2014-01-23 13:57:00,
2014-01-23 09:02:00,3.9,-6.2,30.06,NW,307,0.0,1.0,62,0.00,CLR,,0.00,WeatherDisplay:10.37,2014-01-23 14:02:00,
2014-01-23 09:07:00,4.3,-5.2,30.05,NW,307,0.1,1.1,64,0.00,CLR,,0.00,WeatherDisplay:10.37,2014-01-23 14:07:00,
2014-01-23 09:12:00,4.7,-5.1,30.05,NNW,331,0.0,1.1,63,0.00,CLR,,0.00,WeatherDisplay:10.37,2014-01-23 14:12:00,
2014-01-23 09:17:00,5.0,-5.5,30.06,NE,34,1.3,2.3,61,0.00,CLR,,0.00,WeatherDisplay:10.37,2014-01-23 14:17:00,
2014-01-23 09:22:00,5.4,-5.5,30.06,NNE,32,1.0,2.3,60,0.00,CLR,,0.00,WeatherDisplay:10.37,2014-01-23 14:22:00,
2014-01-23 09:27:00,5.6,-5.3,30.06,WNW,303,1.1,2.3,60,0.00,CLR,,0.00,WeatherDisplay:10.37,2014-01-23 14:27:00,
2014-01-23 09:32:00,5.8,-5.1,30.06,NNW,331,0.4,1.1,60,0.00,CLR,,0.00,WeatherDisplay:10.37,2014-01-23 14:32:00,
2014-01-23 09:37:00,6.0,-5.3,30.05,NNW,332,0.0,0.0,59,0.00,CLR,,0.00,WeatherDisplay:10.37,2014-01-23 14:37:00,
2014-01-23 09:42:00,6.3,-4.6,30.06,NNW,327,1.3,3.5,60,0.00,CLR,,0.00,WeatherDisplay:10.37,2014-01-23 14:42:00,
2014-01-23 09:47:00,6.9,-4.4,30.06,NNW,329,3.7,6.9,59,0.00,CLR,,0.00,WeatherDisplay:10.37,2014-01-23 14:47:00,
2014-01-23 09:50:00,7.2,-4.5,30.06,NNW,342,0.6,4.6,58,0.00,CLR,,0.00,WeatherDisplay:10.37,2014-01-23 14:50:00,
2014-01-23 09:55:00,7.7,-4.4,30.06,WNW,300,3.3,4.6,57,0.00,CLR,,0.00,WeatherDisplay:10.37,2014-01-23 14:55:00,
2014-01-23 10:00:00,8.1,-4.0,30.06,NW,308,1.9,2.3,57,0.00,CLR,,0.00,WeatherDisplay:10.37,2014-01-23 15:00:00,
2014-01-23 10:05:00,8.6,-4.3,30.06,West,267,0.0,1.1,55,0.00,CLR,,0.00,WeatherDisplay:10.37,2014-01-23 15:05:00,
2014-01-23 10:10:00,9.2,-3.3,30.07,WNW,297,1.5,3.5,56,0.00,CLR,,0.00,WeatherDisplay:10.37,2014-01-23 15:10:00,
2014-01-23 10:15:00,9.2,-3.7,30.07,NW,317,1.7,6.9,55,0.00,CLR,,0.00,WeatherDisplay:10.37,2014-01-23 15:15:00,
2014-01-23 10:20:00,9.9,-3.1,30.06,West,278,2.1,3.5,55,0.00,CLR,,0.00,WeatherDisplay:10.37,2014-01-23 15:20:00,
2014-01-23 10:25:00,10.2,-3.2,30.06,NNW,327,0.5,3.5,54,0.00,CLR,,0.00,WeatherDisplay:10.37,2014-01-23 15:25:00,
2014-01-23 10:30:00,10.5,-3.3,30.06,West,265,0.4,3.5,53,0.00,CLR,,0.00,WeatherDisplay:10.37,2014-01-23 15:30:00,
2014-01-23 10:35:00,10.7,-3.1,30.07,WNW,301,1.5,5.0,53,0.00,CLR,,0.00,WeatherDisplay:10.37,2014-01-23 15:35:00,
2014-01-23 10:40:00,10.9,-2.5,30.07,WNW,302,0.7,2.3,54,0.00,CLR,,0.00,WeatherDisplay:10.37,2014-01-23 15:40:00,
2014-01-23 10:45:00,11.2,-2.6,30.07,NW,315,2.5,4.6,53,0.00,CLR,,0.00,WeatherDisplay:10.37,2014-01-23 15:45:00,
2014-01-23 10:50:00,11.9,-1.6,30.06,NW,323,2.3,3.5,54,0.00,CLR,,0.00,WeatherDisplay:10.37,2014-01-23 15:50:00,
2014-01-23 10:55:00,11.7,-2.6,30.06,West,271,2.1,8.1,52,0.00,CLR,,0.00,WeatherDisplay:10.37,2014-01-23 15:55:00,
2014-01-23 11:00:00,11.9,-2.0,30.06,West,275,2.8,4.6,53,0.00,CLR,,0.00,WeatherDisplay:10.37,2014-01-23 16:00:00,
2014-01-23 11:05:00,12.3,-1.6,30.06,WNW,283,3.7,5.8,53,0.00,CLR,,0.00,WeatherDisplay:10.37,2014-01-23 16:05:00,
2014-01-23 11:10:00,12.4,-1.5,30.06,NW,318,3.3,9.0,53,0.00,CLR,,0.00,WeatherDisplay:10.37,2014-01-23 16:10:00,
2014-01-23 11:15:00,12.1,-1.8,30.06,WNW,284,2.9,11.5,53,0.00,CLR,,0.00,WeatherDisplay:10.37,2014-01-23 16:15:00,
2014-01-23 11:20:00,12.3,-1.2,30.06,WSW,251,2.4,9.2,54,0.00,CLR,,0.00,WeatherDisplay:10.37,2014-01-23 16:20:00,
2014-01-23 11:25:00,12.1,-1.8,30.06,WNW,294,2.1,3.5,53,0.00,CLR,,0.00,WeatherDisplay:10.37,2014-01-23 16:25:00,
2014-01-23 11:30:00,12.4,-1.1,30.05,SW,235,0.8,3.5,54,0.00,CLR,,0.00,WeatherDisplay:10.37,2014-01-23 16:30:00,
2014-01-23 11:35:00,13.3,-0.3,30.05,WNW,289,3.4,5.8,54,0.00,CLR,,0.00,WeatherDisplay:10.37,2014-01-23 16:35:00,
2014-01-23 11:40:00,13.5,-0.5,30.04,NW,311,3.0,3.5,53,0.00,CLR,,0.00,WeatherDisplay:10.37,2014-01-23 16:40:00,
2014-01-23 11:45:00,13.5,-0.5,30.04,NW,313,2.2,5.8,53,0.00,CLR,,0.00,WeatherDisplay:10.37,2014-01-23 16:45:00,
2014-01-23 11:50:00,13.5,-0.9,30.04,West,280,4.1,4.1,52,0.00,CLR,,0.00,WeatherDisplay:10.37,2014-01-23 16:50:00,
2014-01-23 11:55:00,13.8,-0.6,30.04,NW,314,4.6,8.0,52,0.00,CLR,,0.00,WeatherDisplay:10.37,2014-01-23 16:55:00,
2014-01-23 12:00:00,14.1,-0.3,30.04,NW,313,4.8,5.8,52,0.00,CLR,,0.00,WeatherDisplay:10.37,2014-01-23 17:00:00,
2014-01-23 12:05:00,14.4,0.4,30.04,West,277,2.0,3.5,53,0.00,CLR,,0.00,WeatherDisplay:10.37,2014-01-23 17:05:00,
2014-01-23 12:10:00,15.1,-0.2,30.04,SW,232,1.4,5.8,50,0.00,CLR,,0.00,WeatherDisplay:10.37,2014-01-23 17:10:00,
2014-01-23 12:15:00,15.6,0.2,30.04,NW,307,2.9,5.8,50,0.00,CLR,,0.00,WeatherDisplay:10.37,2014-01-23 17:15:00,
2014-01-23 12:20:00,16.1,0.7,30.04,WSW,252,2.4,9.2,50,0.00,CLR,,0.00,WeatherDisplay:10.37,2014-01-23 17:20:00,
2014-01-23 12:25:00,16.2,0.8,30.04,NW,319,2.6,5.8,50,0.00,CLR,,0.00,WeatherDisplay:10.37,2014-01-23 17:25:00,
2014-01-23 12:30:00,16.5,1.1,30.03,WNW,303,4.2,6.0,50,0.00,CLR,,0.00,WeatherDisplay:10.37,2014-01-23 17:30:00,
2014-01-23 12:35:00,16.5,0.6,30.04,NW,312,4.4,9.2,49,0.00,CLR,,0.00,WeatherDisplay:10.37,2014-01-23 17:35:00,
2014-01-23 12:40:00,16.5,0.6,30.04,NW,325,3.5,8.0,49,0.00,CLR,,0.00,WeatherDisplay:10.37,2014-01-23 17:40:00,
2014-01-23 12:45:00,16.1,1.1,30.03,West,272,2.3,5.8,51,0.00,CLR,,0.00,WeatherDisplay:10.37,2014-01-23 17:45:00,
2014-01-23 12:50:00,16.4,1.0,30.03,West,276,5.1,11.5,50,0.00,CLR,,0.00,WeatherDisplay:10.37,2014-01-23 17:50:00,
2014-01-23 12:55:00,16.7,-0.1,30.03,WSW,241,2.3,4.6,47,0.00,CLR,,0.00,WeatherDisplay:10.37,2014-01-23 17:55:00,
2014-01-23 13:00:00,17.2,0.4,30.03,WNW,296,3.1,5.8,47,0.00,CLR,,0.00,WeatherDisplay:10.37,2014-01-23 18:00:00,
2014-01-23 13:05:00,17.7,1.7,30.03,West,269,3.7,6.9,49,0.00,CLR,,0.00,WeatherDisplay:10.37,2014-01-23 18:05:00,
2014-01-23 13:10:00,17.7,1.3,30.03,WNW,286,1.9,3.5,48,0.00,CLR,,0.00,WeatherDisplay:10.37,2014-01-23 18:10:00,
2014-01-23 13:15:00,18.1,0.8,30.02,WNW,282,2.6,6.9,46,0.00,CLR,,0.00,WeatherDisplay:10.37,2014-01-23 18:15:00,
2014-01-23 13:20:00,18.1,0.3,30.02,WSW,240,3.2,10.4,45,0.00,CLR,,0.00,WeatherDisplay:10.37,2014-01-23 18:20:00,
2014-01-23 13:25:00,17.7,-0.6,30.02,West,271,3.8,8.1,44,0.00,CLR,,0.00,WeatherDisplay:10.37,2014-01-23 18:25:00,
2014-01-23 13:30:00,17.5,0.7,30.02,WNW,298,4.9,6.9,47,0.00,CLR,,0.00,WeatherDisplay:10.37,2014-01-23 18:30:00,
2014-01-23 13:35:00,17.3,-0.9,30.02,West,279,3.5,3.5,44,0.00,CLR,,0.00,WeatherDisplay:10.37,2014-01-23 18:35:00,
2014-01-23 13:40:00,17.0,0.2,30.02,WNW,288,3.4,4.6,47,0.00,CLR,,0.00,WeatherDisplay:10.37,2014-01-23 18:40:00,
2014-01-23 13:45:00,17.0,-0.3,30.03,West,277,4.2,9.2,46,0.00,CLR,,0.00,WeatherDisplay:10.37,2014-01-23 18:45:00,
2014-01-23 13:50:00,17.0,-0.7,30.03,WNW,287,4.6,6.9,45,0.00,CLR,,0.00,WeatherDisplay:10.37,2014-01-23 18:50:00,
2014-01-23 13:55:00,16.9,-0.8,30.03,West,269,3.0,4.0,45,0.00,CLR,,0.00,WeatherDisplay:10.37,2014-01-23 18:55:00,
2014-01-23 14:01:00,16.9,-0.8,30.03,West,275,2.1,4.6,45,0.00,CLR,,0.00,WeatherDisplay:10.37,2014-01-23 19:01:00,
2014-01-23 14:05:00,17.0,-0.3,30.03,West,267,2.0,4.0,46,0.00,CLR,,0.00,WeatherDisplay:10.37,2014-01-23 19:05:00,
2014-01-23 14:11:00,17.2,-1.5,30.03,West,265,3.9,4.6,43,0.00,CLR,,0.00,WeatherDisplay:10.37,2014-01-23 19:11:00,
2014-01-23 14:16:00,17.0,-0.3,30.03,West,265,2.0,5.8,46,0.00,CLR,,0.00,WeatherDisplay:10.37,2014-01-23 19:16:00,
2014-01-23 14:21:00,17.5,-0.7,30.03,NW,325,6.0,9.2,44,0.00,CLR,,0.00,WeatherDisplay:10.37,2014-01-23 19:21:00,
2014-01-23 14:26:00,18.0,-0.3,30.04,NNW,327,4.4,9.2,44,0.00,CLR,,0.00,WeatherDisplay:10.37,2014-01-23 19:26:00,
2014-01-23 14:31:00,19.1,0.7,30.04,WNW,288,2.2,4.6,44,0.00,CLR,,0.00,WeatherDisplay:10.37,2014-01-23 19:31:00,
2014-01-23 14:36:00,19.2,0.8,30.04,West,274,2.3,4.6,44,0.00,CLR,,0.00,WeatherDisplay:10.37,2014-01-23 19:36:00,
2014-01-23 14:41:00,18.6,1.2,30.04,WSW,242,0.7,3.5,46,0.00,CLR,,0.00,WeatherDisplay:10.37,2014-01-23 19:41:00,
2014-01-23 14:46:00,18.3,0.9,30.04,West,275,2.9,11.5,46,0.00,CLR,,0.00,WeatherDisplay:10.37,2014-01-23 19:46:00,
2014-01-23 14:51:00,18.1,1.7,30.04,WNW,286,0.6,3.5,48,0.00,CLR,,0.00,WeatherDisplay:10.37,2014-01-23 19:51:00,
2014-01-23 14:56:00,17.8,0.9,30.04,West,275,0.9,3.5,47,0.00,CLR,,0.00,WeatherDisplay:10.37,2014-01-23 19:56:00,
2014-01-23 15:01:00,17.3,0.5,30.04,West,263,3.5,5.8,47,0.00,CLR,,0.00,WeatherDisplay:10.37,2014-01-23 20:01:00,
2014-01-23 15:06:00,16.9,1.4,30.04,West,277,2.9,5.0,50,0.00,CLR,,0.00,WeatherDisplay:10.37,2014-01-23 20:06:00,
2014-01-23 15:11:00,16.7,1.7,30.04,WNW,302,5.1,10.4,51,0.00,CLR,,0.00,WeatherDisplay:10.37,2014-01-23 20:11:00,
2014-01-23 15:16:00,16.5,1.9,30.05,NW,312,2.7,5.0,52,0.00,CLR,,0.00,WeatherDisplay:10.37,2014-01-23 20:16:00,
2014-01-23 15:21:00,16.5,1.5,30.05,West,274,3.3,6.9,51,0.00,CLR,,0.00,WeatherDisplay:10.37,2014-01-23 20:21:00,
2014-01-23 15:26:00,16.7,2.5,30.05,NNW,327,4.6,5.0,53,0.00,CLR,,0.00,WeatherDisplay:10.37,2014-01-23 20:26:00,
2014-01-23 15:31:00,16.5,2.3,30.05,NNW,328,3.5,5.8,53,0.00,CLR,,0.00,WeatherDisplay:10.37,2014-01-23 20:31:00,
2014-01-23 15:36:00,16.5,3.1,30.06,NW,309,0.9,5.8,55,0.00,CLR,,0.00,WeatherDisplay:10.37,2014-01-23 20:36:00,
2014-01-23 15:41:00,16.4,3.4,30.06,NW,306,7.6,10.4,56,0.00,CLR,,0.00,WeatherDisplay:10.37,2014-01-23 20:41:00,
2014-01-23 15:46:00,16.2,3.6,30.06,WNW,288,6.2,11.5,57,0.00,CLR,,0.00,WeatherDisplay:10.37,2014-01-23 20:46:00,
2014-01-23 15:51:00,16.2,3.2,30.06,WNW,303,2.3,4.6,56,0.00,CLR,,0.00,WeatherDisplay:10.37,2014-01-23 20:51:00,
2014-01-23 15:56:00,16.1,3.1,30.06,West,277,4.5,5.8,56,0.00,CLR,,0.00,WeatherDisplay:10.37,2014-01-23 20:56:00,
2014-01-23 16:01:00,16.1,3.1,30.07,NNW,328,4.6,6.0,56,0.00,CLR,,0.00,WeatherDisplay:10.37,2014-01-23 21:01:00,
2014-01-23 16:06:00,15.9,3.7,30.07,NW,306,5.9,12.7,58,0.00,CLR,,0.00,WeatherDisplay:10.37,2014-01-23 21:06:00,
2014-01-23 16:11:00,15.7,4.3,30.07,NNW,335,5.1,6.0,60,0.00,CLR,,0.00,WeatherDisplay:10.37,2014-01-23 21:11:00,
2014-01-23 16:16:00,15.4,5.4,30.08,NW,319,4.4,5.8,64,0.00,CLR,,0.00,WeatherDisplay:10.37,2014-01-23 21:16:00,
2014-01-23 16:21:00,15.2,5.5,30.08,WNW,301,2.7,3.5,65,0.00,CLR,,0.00,WeatherDisplay:10.37,2014-01-23 21:21:00,
2014-01-23 16:26:00,15.1,4.4,30.09,NNW,330,5.7,9.2,62,0.00,CLR,,0.00,WeatherDisplay:10.37,2014-01-23 21:26:00,
2014-01-23 16:31:00,15.1,4.1,30.09,WNW,283,3.8,5.8,61,0.00,CLR,,0.00,WeatherDisplay:10.37,2014-01-23 21:31:00,
2014-01-23 16:36:00,15.1,3.7,30.09,NW,306,3.5,4.6,60,0.00,CLR,,0.00,WeatherDisplay:10.37,2014-01-23 21:36:00,
2014-01-23 16:41:00,15.1,3.7,30.09,NW,321,2.6,3.5,60,0.00,CLR,,0.00,WeatherDisplay:10.37,2014-01-23 21:41:00,
2014-01-23 16:46:00,15.1,3.7,30.09,NW,325,3.0,5.0,60,0.00,CLR,,0.00,WeatherDisplay:10.37,2014-01-23 21:46:00,
2014-01-23 16:51:00,15.1,3.0,30.10,NW,304,5.2,6.9,58,0.00,CLR,,0.00,WeatherDisplay:10.37,2014-01-23 21:51:00,
2014-01-23 16:56:00,14.9,3.1,30.10,NNW,333,6.5,10.4,59,0.00,CLR,,0.00,WeatherDisplay:10.37,2014-01-23 21:56:00,
2014-01-23 17:01:00,14.9,3.5,30.10,NW,308,3.7,4.6,60,0.00,CLR,,0.00,WeatherDisplay:10.37,2014-01-23 22:01:00,
2014-01-23 17:06:00,14.9,3.1,30.10,NW,304,2.7,5.0,59,0.00,CLR,,0.00,WeatherDisplay:10.37,2014-01-23 22:06:00,
2014-01-23 17:11:00,14.9,2.4,30.10,NW,317,3.9,11.5,57,0.00,CLR,,0.00,WeatherDisplay:10.37,2014-01-23 22:11:00,
2014-01-23 17:16:00,14.8,1.9,30.10,NW,308,1.4,4.6,56,0.00,CLR,,0.00,WeatherDisplay:10.37,2014-01-23 22:16:00,
2014-01-23 17:21:00,14.8,1.9,30.10,West,277,4.4,7.0,56,0.00,CLR,,0.00,WeatherDisplay:10.37,2014-01-23 22:21:00,
2014-01-23 17:26:00,14.8,1.1,30.10,WNW,292,3.0,5.8,54,0.00,CLR,,0.00,WeatherDisplay:10.37,2014-01-23 22:26:00,
2014-01-23 17:31:00,14.6,0.9,30.11,NW,322,3.0,5.8,54,0.00,CLR,,0.00,WeatherDisplay:10.37,2014-01-23 22:31:00,
2014-01-23 17:36:00,14.6,0.9,30.11,WNW,288,1.7,3.5,54,0.00,CLR,,0.00,WeatherDisplay:10.37,2014-01-23 22:36:00,
2014-01-23 17:41:00,14.4,0.8,30.11,West,269,3.0,6.9,54,0.00,CLR,,0.00,WeatherDisplay:10.37,2014-01-23 22:41:00,
2014-01-23 17:46:00,14.4,0.8,30.12,West,269,1.5,3.5,54,0.00,CLR,,0.00,WeatherDisplay:10.37,2014-01-23 22:46:00,
2014-01-23 17:51:00,14.3,0.7,30.12,West,269,1.7,3.5,54,0.00,CLR,,0.00,WeatherDisplay:10.37,2014-01-23 22:51:00,
2014-01-23 17:56:00,14.1,0.1,30.12,WNW,303,2.4,3.5,53,0.00,CLR,,0.00,WeatherDisplay:10.37,2014-01-23 22:56:00,
2014-01-23 18:01:00,14.1,-0.3,30.12,WNW,295,4.4,6.9,52,0.00,CLR,,0.00,WeatherDisplay:10.37,2014-01-23 23:01:00,
2014-01-23 18:06:00,14.1,0.1,30.12,WNW,294,3.7,5.8,53,0.00,CLR,,0.00,WeatherDisplay:10.37,2014-01-23 23:06:00,
2014-01-23 18:11:00,14.1,0.1,30.13,WNW,299,1.8,4.6,53,0.00,CLR,,0.00,WeatherDisplay:10.37,2014-01-23 23:11:00,
2014-01-23 18:16:00,14.1,0.1,30.13,WNW,290,2.6,4.6,53,0.00,CLR,,0.00,WeatherDisplay:10.37,2014-01-23 23:16:00,
2014-01-23 18:21:00,14.1,-0.3,30.13,West,273,1.7,4.6,52,0.00,CLR,,0.00,WeatherDisplay:10.37,2014-01-23 23:21:00,
2014-01-23 18:26:00,14.0,-0.4,30.14,West,279,2.8,5.8,52,0.00,CLR,,0.00,WeatherDisplay:10.37,2014-01-23 23:26:00,
2014-01-23 18:31:00,14.0,-0.8,30.14,WNW,284,2.4,3.5,51,0.00,CLR,,0.00,WeatherDisplay:10.37,2014-01-23 23:31:00,
2014-01-23 18:36:00,14.0,-0.8,30.14,NW,317,2.4,5.8,51,0.00,CLR,,0.00,WeatherDisplay:10.37,2014-01-23 23:36:00,
2014-01-23 18:41:00,13.8,-1.0,30.14,West,280,2.7,4.6,51,0.00,CLR,,0.00,WeatherDisplay:10.37,2014-01-23 23:41:00,
2014-01-23 18:46:00,13.8,-1.0,30.14,WNW,298,0.5,2.3,51,0.00,CLR,,0.00,WeatherDisplay:10.37,2014-01-23 23:46:00,
2014-01-23 18:51:00,13.6,-1.2,30.14,West,267,0.9,2.3,51,0.00,CLR,,0.00,WeatherDisplay:10.37,2014-01-23 23:51:00,
2014-01-23 18:56:00,13.6,-1.2,30.15,NW,321,2.4,4.0,51,0.00,CLR,,0.00,WeatherDisplay:10.37,2014-01-23 23:56:00,
2014-01-23 19:01:00,13.6,-1.6,30.15,WSW,256,1.9,3.5,50,0.00,CLR,,0.00,WeatherDisplay:10.37,2014-01-24 00:01:00,
2014-01-23 19:06:00,13.5,-1.3,30.15,NW,304,1.2,3.5,51,0.00,CLR,,0.00,WeatherDisplay:10.37,2014-01-24 00:06:00,
2014-01-23 19:11:00,13.5,-1.3,30.15,West,270,0.3,3.0,51,0.00,CLR,,0.00,WeatherDisplay:10.37,2014-01-24 00:11:00,
2014-01-23 19:16:00,13.3,-1.5,30.15,West,270,0.3,1.1,51,0.00,CLR,,0.00,WeatherDisplay:10.37,2014-01-24 00:16:00,
2014-01-23 19:21:00,13.1,-1.3,30.15,WNW,293,3.8,9.2,52,0.00,CLR,,0.00,WeatherDisplay:10.37,2014-01-24 00:21:00,
2014-01-23 19:26:00,13.1,-0.9,30.15,WSW,255,1.8,3.5,53,0.00,CLR,,0.00,WeatherDisplay:10.37,2014-01-24 00:26:00,
2014-01-23 19:31:00,13.1,-1.3,30.15,WSW,255,0.1,1.1,52,0.00,CLR,,0.00,WeatherDisplay:10.37,2014-01-24 00:31:00,
2014-01-23 19:36:00,12.9,-1.4,30.15,WNW,283,0.3,2.3,52,0.00,CLR,,0.00,WeatherDisplay:10.37,2014-01-24 00:36:00,
2014-01-23 19:41:00,12.6,-0.9,30.16,WNW,283,0.0,0.0,54,0.00,CLR,,0.00,WeatherDisplay:10.37,2014-01-24 00:41:00,
2014-01-23 19:46:00,12.3,-0.8,30.16,WNW,283,0.0,0.0,55,0.00,CLR,,0.00,WeatherDisplay:10.37,2014-01-24 00:46:00,
2014-01-23 19:51:00,11.9,-0.8,30.16,WNW,283,0.0,1.1,56,0.00,CLR,,0.00,WeatherDisplay:10.37,2014-01-24 00:51:00,
2014-01-23 19:56:00,11.7,-1.0,30.16,West,273,2.6,4.6,56,0.00,CLR,,0.00,WeatherDisplay:10.37,2014-01-24 00:56:00,
2014-01-23 20:01:00,11.7,-1.0,30.16,WNW,288,1.5,5.8,56,0.00,CLR,,0.00,WeatherDisplay:10.37,2014-01-24 01:01:00,
2014-01-23 20:06:00,11.7,-1.0,30.16,WNW,285,0.0,1.1,56,0.00,CLR,,0.00,WeatherDisplay:10.37,2014-01-24 01:06:00,
2014-01-23 20:11:00,11.9,-1.2,30.16,West,279,1.1,6.9,55,0.00,CLR,,0.00,WeatherDisplay:10.37,2014-01-24 01:11:00,
2014-01-23 20:16:00,11.9,-1.2,30.16,West,267,2.1,3.5,55,0.00,CLR,,0.00,WeatherDisplay:10.37,2014-01-24 01:16:00,
2014-01-23 20:21:00,11.9,-0.8,30.17,NW,320,0.8,1.1,56,0.00,CLR,,0.00,WeatherDisplay:10.37,2014-01-24 01:21:00,
2014-01-23 20:26:00,11.9,-0.8,30.16,SW,232,0.5,9.2,56,0.00,CLR,,0.00,WeatherDisplay:10.37,2014-01-24 01:26:00,
2014-01-23 20:31:00,11.7,-1.0,30.17,WSW,252,1.9,4.6,56,0.00,CLR,,0.00,WeatherDisplay:10.37,2014-01-24 01:31:00,
2014-01-23 20:36:00,11.9,-1.2,30.17,WSW,252,2.2,3.5,55,0.00,CLR,,0.00,WeatherDisplay:10.37,2014-01-24 01:36:00,
2014-01-23 20:41:00,12.1,-1.0,30.17,SW,236,0.8,2.3,55,0.00,CLR,,0.00,WeatherDisplay:10.37,2014-01-24 01:41:00,
2014-01-23 20:46:00,12.1,-0.6,30.17,West,266,2.5,3.5,56,0.00,CLR,,0.00,WeatherDisplay:10.37,2014-01-24 01:46:00,
2014-01-23 20:51:00,11.9,-0.8,30.17,West,277,1.5,2.3,56,0.00,CLR,,0.00,WeatherDisplay:10.37,2014-01-24 01:51:00,
2014-01-23 20:56:00,11.9,-0.8,30.17,WNW,288,0.6,2.3,56,0.00,CLR,,0.00,WeatherDisplay:10.37,2014-01-24 01:56:00,
2014-01-23 21:01:00,11.9,-0.8,30.17,WNW,282,1.9,6.9,56,0.00,CLR,,0.00,WeatherDisplay:10.37,2014-01-24 02:01:00,
2014-01-23 21:06:00,11.9,-0.8,30.17,West,276,0.7,2.3,56,0.00,CLR,,0.00,WeatherDisplay:10.37,2014-01-24 02:06:00,
2014-01-23 21:11:00,11.7,-1.0,30.17,West,276,0.4,3.5,56,0.00,CLR,,0.00,WeatherDisplay:10.37,2014-01-24 02:11:00,
2014-01-23 21:16:00,11.6,-0.3,30.17,West,276,0.6,2.3,58,0.00,CLR,,0.00,WeatherDisplay:10.37,2014-01-24 02:16:00,
2014-01-23 21:21:00,11.4,-0.5,30.17,NW,312,1.1,2.3,58,0.00,CLR,,0.00,WeatherDisplay:10.37,2014-01-24 02:21:00,
2014-01-23 21:26:00,11.4,-0.5,30.17,West,267,1.8,2.3,58,0.00,CLR,,0.00,WeatherDisplay:10.37,2014-01-24 02:26:00,
2014-01-23 21:31:00,11.4,-0.9,30.17,West,280,1.8,3.5,57,0.00,CLR,,0.00,WeatherDisplay:10.37,2014-01-24 02:31:00,
2014-01-23 21:36:00,11.4,-0.9,30.17,NW,313,0.8,3.5,57,0.00,CLR,,0.00,WeatherDisplay:10.37,2014-01-24 02:36:00,
2014-01-23 21:41:00,11.4,-0.9,30.17,WNW,284,0.3,1.1,57,0.00,CLR,,0.00,WeatherDisplay:10.37,2014-01-24 02:41:00,
2014-01-23 21:46:00,11.2,-0.7,30.17,WNW,285,0.2,1.1,58,0.00,CLR,,0.00,WeatherDisplay:10.37,2014-01-24 02:46:00,
2014-01-23 21:51:00,11.2,-1.5,30.17,West,279,1.7,6.9,56,0.00,CLR,,0.00,WeatherDisplay:10.37,2014-01-24 02:51:00,
2014-01-23 21:56:00,11.4,-1.3,30.17,WNW,298,0.8,6.9,56,0.00,CLR,,0.00,WeatherDisplay:10.37,2014-01-24 02:56:00,
2014-01-23 22:01:00,11.2,-0.7,30.17,WNW,296,1.1,1.1,58,0.00,CLR,,0.00,WeatherDisplay:10.37,2014-01-24 03:01:00,
2014-01-23 22:06:00,11.1,-0.8,30.17,WNW,296,0.9,3.5,58,0.00,CLR,,0.00,WeatherDisplay:10.37,2014-01-24 03:06:00,
2014-01-23 22:11:00,10.9,-1.4,30.17,SW,236,1.8,4.6,57,0.00,CLR,,0.00,WeatherDisplay:10.37,2014-01-24 03:11:00,
2014-01-23 22:16:00,11.2,-1.1,30.17,West,271,0.4,3.5,57,0.00,CLR,,0.00,WeatherDisplay:10.37,2014-01-24 03:16:00,
2014-01-23 22:21:00,11.1,-1.2,30.17,SSW,205,0.2,4.6,57,0.00,CLR,,0.00,WeatherDisplay:10.37,2014-01-24 03:21:00,
2014-01-23 22:26:00,10.9,-0.6,30.17,WSW,241,1.1,3.5,59,0.00,CLR,,0.00,WeatherDisplay:10.37,2014-01-24 03:26:00,
2014-01-23 22:31:00,10.7,-0.8,30.17,West,271,0.1,2.3,59,0.00,CLR,,0.00,WeatherDisplay:10.37,2014-01-24 03:31:00,
2014-01-23 22:36:00,10.5,-1.0,30.17,West,279,2.1,2.3,59,0.00,CLR,,0.00,WeatherDisplay:10.37,2014-01-24 03:36:00,
2014-01-23 22:41:00,10.4,-0.8,30.17,West,265,0.1,1.1,60,0.00,CLR,,0.00,WeatherDisplay:10.37,2014-01-24 03:41:00,
2014-01-23 22:46:00,10.0,-0.8,30.17,West,265,0.9,2.3,61,0.00,CLR,,0.00,WeatherDisplay:10.37,2014-01-24 03:46:00,
2014-01-23 22:51:00,9.9,-0.9,30.18,SSW,209,1.2,2.3,61,0.00,CLR,,0.00,WeatherDisplay:10.37,2014-01-24 03:51:00,
2014-01-23 22:56:00,9.9,-0.5,30.18,SSW,209,0.5,1.1,62,0.00,CLR,,0.00,WeatherDisplay:10.37,2014-01-24 03:56:00,
2014-01-23 23:01:00,9.7,-0.7,30.18,WSW,250,1.7,5.0,62,0.00,CLR,,0.00,WeatherDisplay:10.37,2014-01-24 04:01:00,
2014-01-23 23:06:00,10.0,-1.1,30.18,West,268,1.2,2.3,60,0.00,CLR,,0.00,WeatherDisplay:10.37,2014-01-24 04:06:00,
2014-01-23 23:11:00,10.2,-0.9,30.18,West,262,0.0,2.3,60,0.00,CLR,,0.00,WeatherDisplay:10.37,2014-01-24 04:11:00,
2014-01-23 23:16:00,10.0,-0.8,30.18,West,262,0.2,2.3,61,0.00,CLR,,0.00,WeatherDisplay:10.37,2014-01-24 04:16:00,
2014-01-23 23:21:00,9.7,-1.1,30.18,West,262,0.1,1.1,61,0.00,CLR,,0.00,WeatherDisplay:10.37,2014-01-24 04:21:00,
2014-01-23 23:26:00,9.3,-1.1,30.18,West,262,0.0,0.0,62,0.00,CLR,,0.00,WeatherDisplay:10.37,2014-01-24 04:26:00,
2014-01-23 23:31:00,9.2,-1.2,30.18,West,262,0.0,0.0,62,0.00,CLR,,0.00,WeatherDisplay:10.37,2014-01-24 04:31:00,
2014-01-23 23:36:00,9.0,-1.4,30.18,West,262,0.0,0.0,62,0.00,CLR,,0.00,WeatherDisplay:10.37,2014-01-24 04:36:00,
2014-01-23 23:41:00,8.6,-1.8,30.18,West,262,0.0,0.0,62,0.00,CLR,,0.00,WeatherDisplay:10.37,2014-01-24 04:41:00,
2014-01-23 23:46:00,8.3,-1.7,30.18,West,262,0.0,0.0,63,0.00,CLR,,0.00,WeatherDisplay:10.37,2014-01-24 04:46:00,
2014-01-23 23:51:00,8.1,-1.6,30.18,West,262,0.0,0.0,64,0.00,CLR,,0.00,WeatherDisplay:10.37,2014-01-24 04:51:00,
2014-01-23 23:56:00,7.9,-1.8,30.18,West,262,0.0,1.1,64,0.00,CLR,,0.00,WeatherDisplay:10.37,2014-01-24 04:56:00,